KTEB

Teterboro

Airport
ICAO code
KTEB
Summary
ICAO Region
NAM
ICAO Territory
Location

Teterboro, New Jersey,

Coordinates
40° 51' 7" N , 74° 3' 38" W
KCC
Airport BS
Bird Strike
Airport RE
Engineered Materials Arresting System
Metar
KTEB 151551Z 36009G24KT 10SM CLR 24/10 A2999 RMK AO2 SLP154 T02440100 $

Description

Teterboro Airport is a general aviation airport located in the Boroughs of Teterboro, Moonachie, and Hasbrouck Heights in Bergen County, New Jersey, United States. It is owned and operated by the Port Authority of New York and New Jersey. The airport is 19 km from midtown Manhattan, which makes it very popular for private and corporate aircraft.

Climatology

Humid “subtropical” climate (Köppen climate classification Cfa) - characterized by hot, humid summers and cool winters. Significant amounts of precipitation occur in all seasons in most areas. Winter rainfall (and sometimes snowfall) is associated with large storms that the westerlies steer from west to east. Most summer rainfall occurs during thunderstorms.

Runways

Designator Length Width Surface Rops
6/24 1833 46 ASP Yes/Yes
1/19 2134 46 ASP Yes/Yes

Airport map

Aerial View

SKYbrary Partners:

Safety knowledge contributed by: